Theta_e
348 349 343 343 343 343 344 344 344 344 344 343 339 337 335 342 342 338 336 338 338 338 342 342 340 339 337 336 336 334 329 324 325 328 323 325 332 332 337 338 337 336 337
347 348 345 344 345 344 344 344 344 343 342 342 337 342 344 342 338 337 336 337 337 337 338 339 338 338 338 337 336 332 333 328 330 335 336 333 336 339 336 336 337 338 338
347 348 347 344 344 344 345 345 344 342 341 341 336 342 341 339 340 336 334 337 336 336 337 337 337 337 336 333 330 326 325 330 335 337 337 337 337 339 339 334 334 338 336
346 348 347 344 345 345 345 344 342 341 337 335 334 340 343 341 340 335 333 334 335 336 337 337 337 334 332 331 329 327 321 335 337 338 338 336 339 340 339 339 335 337 338
345 346 350 344 344 345 344 342 341 339 333 331 330 337 343 341 339 335 333 334 334 334 335 335 334 332 330 329 329 327 323 333 334 335 338 338 338 337 337 335 337 336 336
344 345 347 344 344 344 342 342 341 335 331 328 326 336 342 341 338 332 327 331 333 334 334 334 332 330 329 329 328 325 326 328 332 334 335 335 333 334 333 333 332 331 332
343 347 345 344 343 343 342 342 339 332 329 324 332 331 340 342 337 333 325 328 330 332 333 333 330 328 328 328 328 327 326 326 328 329 331 332 332 331 331 330 327 325 327
343 346 346 344 343 342 342 341 336 333 325 339 340 336 342 341 336 334 331 325 330 329 327 327 326 327 328 327 328 328 326 328 326 326 327 330 331 331 327 322 320 315 319
343 344 345 345 345 342 343 340 335 331 326 339 341 338 342 338 336 335 333 329 325 327 326 324 324 325 327 327 327 327 327 325 326 324 322 328 330 332 328 325 326 322 312
342 345 343 346 345 344 344 339 335 335 326 337 339 339 339 337 336 335 333 332 326 323 323 323 323 323 323 324 326 326 325 324 324 323 322 318 329 333 330 329 328 325 315
343 345 345 346 343 344 343 339 336 335 333 326 336 336 334 336 336 334 337 333 329 324 324 323 323 321 321 321 322 323 324 324 322 321 321 318 321 331 333 330 329 326 319
345 345 346 345 343 344 345 341 339 338 337 336 331 327 330 331 333 333 334 331 328 327 324 324 323 321 320 325 325 321 324 323 321 320 320 318 317 327 333 333 329 325 322
343 346 344 344 343 343 345 342 341 337 339 339 338 335 330 328 328 327 331 329 331 327 332 329 329 329 326 323 321 321 320 320 319 319 319 317 315 321 333 333 331 326 323
342 343 344 344 343 343 342 343 341 337 339 339 338 337 335 333 332 329 328 329 331 331 331 333 332 331 331 329 324 322 321 321 321 320 319 318 316 315 332 332 331 328 325
341 341 341 342 341 341 340 342 342 339 338 338 339 338 337 336 335 333 330 326 327 327 329 330 331 330 331 330 329 328 326 325 324 323 321 320 320 316 317 332 333 330 328
342 341 340 340 340 339 341 340 341 338 338 337 337 338 338 336 335 335 333 331 327 327 328 329 332 334 334 333 333 331 330 330 330 328 325 323 323 323 318 317 327 331 330
342 342 342 342 341 340 341 341 340 338 337 337 337 337 337 336 335 334 334 333 333 331 330 331 332 333 334 334 334 334 333 332 332 331 328 326 325 324 325 322 316 324 330
341 342 342 342 340 339 340 341 339 337 336 336 337 337 338 337 336 336 335 335 335 335 334 334 334 334 334 334 334 333 333 333 333 333 332 331 329 327 326 325 325 318 322
340 341 341 341 340 340 339 339 338 338 338 337 337 338 338 338 336 336 337 336 336 336 336 336 335 335 335 335 334 334 334 334 334 334 333 332 332 330 327 326 324 324 321
338 340 341 341 340 340 340 340 339 339 339 338 338 338 338 337 336 336 337 337 337 337 336 336 336 336 335 335 334 335 334 334 333 333 332 331 330 330 329 325 324 324 324
331 339 340 341 340 340 340 340 340 340 340 339 339 338 338 337 337 337 337 337 336 336 336 336 336 334 334 335 334 334 334 333 333 331 330 328 328 327 325 325 324 323 323
319 329 338 340 340 340 340 340 340 340 340 340 340 340 338 338 337 337 337 337 336 336 336 336 335 335 334 334 334 333 333 331 329 328 327 327 326 325 323 321 321 321 320
318 318 329 336 338 340 340 341 340 339 339 339 339 339 339 338 338 337 337 336 335 336 335 335 335 334 334 333 332 332 333 331 328 326 326 325 323 322 321 319 319 319 319
317 317 317 322 331 336 338 339 336 335 337 337 336 336 333 329 329 327 328 331 332 333 333 333 332 331 331 332 331 331 329 329 328 328 325 325 324 320 320 319 318 317 316
317 317 317 317 319 321 324 330 332 334 333 326 320 318 316 316 314 315 314 316 317 320 323 323 325 325 325 326 327 328 326 326 326 326 326 324 325 322 320 320 317 316 314
316 317 316 316 316 316 317 318 320 320 317 316 316 316 316 316 317 317 314 316 317 318 320 322 322 322 321 321 322 323 325 325 322 322 322 322 323 322 320 319 316 314 312
Wind_Speed
18 22 23 20 18 15 13 13 13 11 10 10 9 9 12 13 14 13 12 12 14 13 15 18 17 18 18 18 17 17 16 16 17 19 18 16 15 14 14 12 9 11 11
24 23 24 20 18 16 15 13 12 11 10 9 9 11 15 15 14 13 13 13 13 14 13 15 15 16 16 16 16 16 15 15 16 16 15 17 17 17 13 12 12 10 9
24 23 22 21 18 17 14 13 11 10 9 8 9 12 13 14 13 13 13 13 13 13 13 13 13 14 14 14 14 15 15 16 17 16 10 10 12 15 19 12 11 12 11
24 22 21 21 18 17 15 14 12 10 9 9 10 13 13 14 13 13 13 12 12 12 13 13 13 12 13 12 12 14 15 17 15 14 14 12 12 16 17 19 11 12 9
22 22 21 21 19 18 16 13 11 9 8 8 11 12 12 13 11 12 13 12 12 12 12 12 12 12 12 11 11 13 16 16 14 14 13 13 11 12 13 13 13 13 12
21 20 20 19 18 17 16 14 12 8 7 9 10 13 12 11 11 10 12 12 12 12 11 11 11 11 11 11 11 12 14 14 12 10 10 11 9 11 11 10 9 9 9
20 20 20 18 17 15 16 15 12 9 8 11 11 12 12 11 9 7 11 11 11 11 11 10 10 9 10 10 9 9 11 13 10 8 8 8 8 10 11 12 12 11 11
19 17 19 18 16 15 15 14 11 9 10 14 11 10 12 12 6 5 9 9 9 9 8 8 7 7 7 7 6 6 8 9 7 6 7 5 7 8 11 13 13 12 11
17 18 17 17 17 16 15 13 11 10 13 13 15 12 12 9 5 3 6 7 7 6 6 6 5 4 4 5 5 4 5 8 7 4 5 4 4 3 7 11 14 13 12
17 16 17 17 17 15 14 13 10 9 11 13 13 13 12 11 8 5 5 6 5 4 4 4 3 2 2 1 1 2 4 7 4 4 4 4 0 2 3 6 11 12 12
13 16 15 16 17 17 16 14 10 7 9 10 11 10 8 6 6 3 6 4 4 4 4 3 2 0 0 1 1 2 2 2 3 3 2 5 2 3 3 6 7 11 10
17 16 17 15 16 17 15 15 11 8 7 7 7 9 7 7 7 6 6 6 5 5 5 4 2 1 1 2 4 4 3 3 3 3 4 7 4 3 4 9 6 9 9
16 15 16 16 16 14 15 15 11 10 8 8 8 8 7 7 5 7 4 4 4 4 4 4 3 1 4 3 3 3 4 4 4 5 6 8 6 4 5 6 6 7 8
17 18 16 16 15 15 12 14 11 11 9 9 8 8 7 7 6 6 6 5 6 6 6 6 5 5 5 5 5 5 6 6 6 6 7 10 8 6 6 7 8 7 8
12 13 15 14 14 14 14 14 13 13 11 10 9 9 8 7 6 6 6 6 7 6 6 6 6 6 6 6 7 7 8 8 8 8 7 11 10 8 8 11 9 9 8
10 13 13 15 15 15 15 13 14 11 10 10 10 10 10 8 7 6 6 6 7 7 7 7 7 7 7 7 7 8 8 8 8 8 9 9 12 10 10 11 12 10 10
14 13 14 15 14 14 16 14 13 11 10 11 11 10 10 10 9 8 7 7 7 7 8 8 8 9 9 8 9 9 9 9 10 10 11 11 10 12 12 12 14 13 13
14 16 14 13 13 14 15 14 12 11 11 11 11 10 11 10 10 8 8 8 8 8 8 8 9 9 9 10 10 10 10 10 12 12 13 13 13 12 12 14 12 15 15
14 16 16 15 14 14 13 12 12 11 11 11 11 10 10 10 10 10 9 8 9 9 10 10 10 11 11 12 12 13 12 13 14 14 15 15 15 15 14 13 16 16 16
12 15 16 16 15 15 13 13 13 12 13 13 12 11 10 10 10 11 10 10 10 12 12 13 14 14 14 15 14 15 16 15 16 16 16 16 16 15 13 15 13 14 14
10 15 16 16 16 15 15 14 15 15 14 14 13 12 11 11 11 11 11 12 13 14 14 15 15 16 17 16 14 14 17 17 16 16 14 15 13 10 10 10 11 11 11
10 13 15 17 15 16 15 15 14 14 14 13 12 11 11 11 12 12 13 14 14 15 16 17 17 17 17 14 6 10 3 11 16 15 10 9 9 10 9 7 7 8 9
10 11 14 14 14 15 15 13 12 8 7 7 9 9 9 9 10 14 16 18 18 19 20 21 19 15 15 16 15 10 3 4 5 5 6 7 9 9 7 6 4 5 7
12 10 10 13 14 13 13 13 12 12 11 11 8 8 9 10 10 10 10 10 13 15 17 19 21 18 18 16 14 18 21 13 3 3 10 10 8 7 6 5 5 5 6
12 11 10 9 11 13 14 14 13 13 10 7 7 7 6 6 7 9 10 11 12 11 11 12 12 12 15 17 18 16 14 14 16 9 5 6 9 8 5 5 3 2 3
14 14 13 12 11 11 11 11 12 11 10 8 8 6 6 5 5 7 8 8 8 8 8 9 10 11 12 14 17 18 16 9 7 8 5 8 6 5 3 3 1 1 2
Wind_Direction
150 157 161 158 156 155 143 139 134 124 112 102 87 80 103 102 92 81 79 80 86 82 76 82 80 83 82 80 78 76 76 78 79 74 69 73 67 60 64 83 82 69 64
149 155 161 161 157 153 149 143 132 129 117 106 93 104 106 98 89 83 85 87 93 88 92 86 88 85 83 81 80 78 76 78 78 75 75 58 67 53 58 82 83 63 60
147 155 158 161 160 156 153 144 135 127 120 114 107 112 106 99 90 84 88 92 99 99 102 100 95 89 83 81 80 75 73 77 80 70 54 76 63 56 51 58 70 60 45
147 153 160 163 158 155 154 145 140 132 121 115 120 126 115 104 91 86 90 93 97 101 104 104 95 88 83 81 82 74 71 82 73 65 66 81 69 56 57 53 75 51 42
150 152 159 164 163 157 154 149 143 132 120 120 125 133 123 110 101 92 95 94 95 99 103 103 96 91 85 81 83 80 77 81 63 77 64 71 61 47 49 65 57 49 54
150 152 157 161 166 162 156 151 144 131 120 122 133 139 125 123 105 93 98 95 93 96 101 101 99 92 85 82 85 83 79 76 68 68 69 68 51 45 41 42 47 37 31
152 146 150 165 168 164 159 152 145 129 120 122 126 139 136 136 111 94 98 99 99 101 106 105 101 94 84 80 89 81 74 71 66 63 60 52 47 48 50 50 41 31 29
154 147 155 163 168 164 164 154 141 128 129 126 129 133 138 140 122 88 104 107 106 106 108 107 102 96 88 80 85 80 69 76 52 55 54 50 60 66 53 45 36 27 25
156 152 158 157 160 165 164 156 140 129 139 134 134 139 145 146 138 115 115 113 120 120 115 110 110 103 90 79 77 79 69 73 58 44 43 57 73 55 35 29 25 21 21
160 144 166 161 157 161 165 163 148 130 138 155 149 150 154 147 161 172 140 134 132 142 136 131 127 116 97 84 66 57 52 48 31 21 26 3 47 112 330 359 7 11 11
155 163 172 168 164 167 167 166 154 144 138 161 171 171 164 163 174 181 175 189 164 167 169 171 174 168 27 358 328 339 22 2 347 343 348 329 304 248 248 305 345 359 3
172 174 168 166 169 173 168 165 168 174 161 157 162 174 182 183 182 182 205 214 197 195 198 215 228 252 58 257 315 338 10 301 305 310 299 307 318 255 250 256 315 345 352
177 171 165 174 175 175 172 167 170 183 189 184 183 178 182 183 194 191 204 202 208 221 222 254 273 262 243 256 261 273 282 290 289 292 283 298 302 293 275 245 299 325 336
186 183 179 180 177 182 184 182 178 193 206 198 197 196 188 182 186 191 200 200 208 221 216 226 237 245 255 264 268 275 276 278 282 285 285 294 299 289 247 249 276 301 316
200 195 188 189 192 197 191 194 188 199 199 204 199 208 209 206 199 198 207 209 216 222 227 233 243 252 258 263 266 267 270 275 276 277 278 284 293 283 262 242 247 271 290
205 198 193 193 197 197 195 198 205 206 205 214 210 212 216 217 218 220 217 219 224 226 231 238 244 249 256 260 266 266 268 272 273 271 269 275 283 284 271 256 247 251 248
203 197 196 194 195 199 199 203 211 211 221 218 221 216 216 219 222 225 233 232 232 233 236 243 250 254 260 263 266 269 270 272 271 268 268 267 271 281 279 268 260 251 248
202 201 198 195 195 202 199 204 211 218 215 222 222 222 219 219 220 222 229 235 239 240 241 243 248 253 257 262 267 268 266 263 269 269 269 267 266 266 273 275 268 258 250
205 195 196 195 194 196 206 203 209 209 214 218 222 221 222 223 221 222 229 235 236 240 245 248 252 254 262 267 271 271 271 273 269 270 270 270 268 265 264 265 271 269 260
202 200 195 194 198 194 201 210 211 214 216 220 222 223 224 227 229 230 235 241 245 247 249 253 255 258 260 267 273 275 275 269 270 269 272 278 277 271 269 267 264 275 278
211 201 199 199 201 198 199 207 219 212 216 223 226 229 229 232 235 238 243 248 248 251 258 261 263 264 263 264 276 272 269 265 257 259 266 273 273 273 271 267 263 263 271
212 207 205 205 201 201 202 207 216 223 223 224 227 230 234 240 240 242 246 250 252 255 260 264 266 265 264 260 256 281 282 277 266 255 246 258 264 275 273 271 264 269 271
215 208 204 200 199 199 203 206 210 213 203 207 219 231 232 235 241 239 242 249 253 255 258 260 264 264 259 258 255 246 277 249 340 215 229 255 274 272 262 260 272 274 276
209 210 213 198 198 199 199 204 205 210 216 223 226 205 213 239 241 243 248 256 265 266 267 269 273 272 266 258 256 245 252 258 262 297 265 263 275 260 269 278 308 313 294
195 208 205 197 192 196 201 207 217 229 238 213 212 212 214 238 247 253 255 256 261 261 260 261 263 260 259 261 255 257 255 254 246 234 265 258 263 258 238 281 275 347 353
187 190 190 183 186 189 187 197 202 203 196 193 196 204 212 221 237 254 261 262 260 266 269 270 269 264 264 260 259 257 254 237 223 213 227 236 248 259 258 282 78 347 298